TimeCDT,TemperatureF,Dew PointF,Humidity,Sea Level PressureIn,VisibilityMPH,Wind Direction,Wind SpeedMPH,Gust SpeedMPH,PrecipitationIn,Events,Conditions,WindDirDegrees,DateUTC
12:56 AM,63.9,61.0,90,29.99,6.0,SE,5.8,-,N/A,,Clear,140,2013-05-18 05:56:00
1:56 AM,61.9,61.0,97,29.99,5.0,SSE,6.9,-,N/A,,Mostly Cloudy,160,2013-05-18 06:56:00
2:56 AM,64.9,61.9,90,29.99,6.0,South,6.9,-,N/A,,Overcast,180,2013-05-18 07:56:00
3:56 AM,64.9,61.9,90,30.00,6.0,South,8.1,-,N/A,,Overcast,180,2013-05-18 08:56:00
4:56 AM,63.0,61.9,96,30.00,4.0,SSE,6.9,-,N/A,,Mostly Cloudy,160,2013-05-18 09:56:00
5:46 AM,62.6,60.8,94,30.04,2.0,SSE,3.5,-,N/A,,Clear,160,2013-05-18 10:46:00
5:56 AM,61.9,61.0,97,30.01,2.0,SSE,3.5,-,N/A,,Clear,150,2013-05-18 10:56:00
6:56 AM,63.9,61.9,93,30.01,2.0,SSE,8.1,-,N/A,,Clear,150,2013-05-18 11:56:00
7:47 AM,66.2,64.4,94,30.05,4.0,SSE,10.4,-,N/A,,Scattered Clouds,150,2013-05-18 12:47:00
7:56 AM,66.9,63.9,90,30.03,4.0,SSE,8.1,-,N/A,,Scattered Clouds,150,2013-05-18 12:56:00
8:32 AM,68.0,64.4,88,30.06,5.0,SSE,3.5,-,N/A,,Mostly Cloudy,160,2013-05-18 13:32:00
8:56 AM,70.0,63.9,81,30.03,6.0,SSE,5.8,-,N/A,,Haze,160,2013-05-18 13:56:00
9:56 AM,70.9,63.9,78,30.03,8.0,East,4.6,-,N/A,,Overcast,100,2013-05-18 14:56:00
10:56 AM,72.9,61.9,68,30.02,9.0,SSE,6.9,-,N/A,,Overcast,150,2013-05-18 15:56:00
11:56 AM,75.9,61.9,62,30.01,10.0,SSE,10.4,-,N/A,,Mostly Cloudy,160,2013-05-18 16:56:00
12:56 PM,77.0,61.0,58,29.99,10.0,SSE,8.1,-,N/A,,Mostly Cloudy,160,2013-05-18 17:56:00
1:56 PM,77.0,61.9,59,29.97,10.0,South,6.9,-,N/A,,Mostly Cloudy,180,2013-05-18 18:56:00
2:56 PM,77.9,63.0,60,29.96,10.0,South,8.1,16.1,N/A,,Mostly Cloudy,180,2013-05-18 19:56:00
3:56 PM,79.0,61.0,54,29.94,10.0,SE,11.5,-,N/A,,Overcast,130,2013-05-18 20:56:00
4:56 PM,81.9,61.0,49,29.93,10.0,ESE,12.7,-,N/A,,Mostly Cloudy,120,2013-05-18 21:56:00
5:56 PM,77.9,61.0,56,29.94,10.0,SSE,9.2,-,N/A,,Mostly Cloudy,150,2013-05-18 22:56:00
6:56 PM,77.9,61.0,56,29.93,10.0,SSE,9.2,-,N/A,,Mostly Cloudy,150,2013-05-18 23:56:00
7:56 PM,74.8,61.0,62,29.93,10.0,SSE,5.8,-,N/A,,Scattered Clouds,150,2013-05-19 00:56:00
8:56 PM,70.9,61.0,71,29.94,10.0,SE,6.9,-,N/A,,Clear,130,2013-05-19 01:56:00
9:56 PM,70.9,61.9,73,29.94,10.0,SE,8.1,-,N/A,,Clear,140,2013-05-19 02:56:00
10:56 PM,68.9,61.9,78,29.92,10.0,SE,8.1,-,N/A,,Clear,140,2013-05-19 03:56:00
11:56 PM,68.0,61.9,81,29.91,10.0,SE,8.1,-,N/A,,Clear,140,2013-05-19 04:56:00